Time,TemperatureF,DewpointF,PressureIn,WindDirection,WindDirectionDegrees,WindSpeedMPH,WindSpeedGustMPH,Humidity,HourlyPrecipIn,Conditions,Clouds,dailyrainin,SoftwareType,DateUTC
2013-08-02 00:02:00,50.0,40.0,-100.00,WNW,297,3.0,15.0,68,0.00,,,0.00,,2013-08-02 06:02:00,
2013-08-02 00:12:00,50.0,40.0,-100.00,WNW,297,3.0,15.0,68,0.00,,,0.00,,2013-08-02 06:12:00,
2013-08-02 00:22:00,50.0,40.0,-100.00,WNW,297,3.0,15.0,68,0.00,,,0.00,,2013-08-02 06:22:00,
2013-08-02 00:52:00,49.0,39.0,-100.00,NE,35,2.0,-999.0,69,0.00,,,0.00,,2013-08-02 06:52:00,
2013-08-02 01:02:00,49.0,39.0,-100.00,NE,35,2.0,-999.0,69,0.00,,,0.00,,2013-08-02 07:02:00,
2013-08-02 01:12:00,49.0,39.0,-100.00,NE,35,2.0,-999.0,69,0.00,,,0.00,,2013-08-02 07:12:00,
2013-08-02 01:22:00,49.0,39.0,-100.00,NE,35,2.0,-999.0,69,0.00,,,0.00,,2013-08-02 07:22:00,
2013-08-02 01:53:00,50.0,37.0,-100.00,WSW,249,5.0,11.0,61,0.00,,,0.00,,2013-08-02 07:53:00,
2013-08-02 02:02:00,50.0,37.0,-100.00,WSW,249,5.0,11.0,61,0.00,,,0.00,,2013-08-02 08:02:00,
2013-08-02 02:12:00,50.0,37.0,-100.00,WSW,249,5.0,11.0,61,0.00,,,0.00,,2013-08-02 08:12:00,
2013-08-02 02:22:00,50.0,37.0,-100.00,WSW,249,5.0,11.0,61,0.00,,,0.00,,2013-08-02 08:22:00,
2013-08-02 02:54:00,51.0,38.0,-100.00,WSW,258,4.0,18.0,61,0.00,,,0.00,,2013-08-02 08:54:00,
2013-08-02 03:02:00,51.0,38.0,-100.00,WSW,258,4.0,18.0,61,0.00,,,0.00,,2013-08-02 09:02:00,
2013-08-02 03:12:00,51.0,38.0,-100.00,WSW,258,4.0,18.0,61,0.00,,,0.00,,2013-08-02 09:12:00,
2013-08-02 03:22:00,51.0,38.0,-100.00,WSW,258,4.0,18.0,61,0.00,,,0.00,,2013-08-02 09:22:00,
2013-08-02 03:53:00,51.0,39.0,-100.00,West,264,4.0,27.0,63,0.00,,,0.00,,2013-08-02 09:53:00,
2013-08-02 04:02:00,51.0,39.0,-100.00,West,264,4.0,27.0,63,0.00,,,0.00,,2013-08-02 10:02:00,
2013-08-02 04:12:00,51.0,39.0,-100.00,West,264,4.0,27.0,63,0.00,,,0.00,,2013-08-02 10:12:00,
2013-08-02 04:23:00,51.0,39.0,-100.00,West,264,4.0,27.0,63,0.00,,,0.00,,2013-08-02 10:23:00,
2013-08-02 04:52:00,51.0,40.0,-100.00,WSW,254,2.0,12.0,66,0.00,,,0.00,,2013-08-02 10:52:00,
2013-08-02 05:02:00,51.0,40.0,-100.00,WSW,254,2.0,12.0,66,0.00,,,0.00,,2013-08-02 11:02:00,
2013-08-02 05:12:00,51.0,40.0,-100.00,WSW,254,2.0,12.0,66,0.00,,,0.00,,2013-08-02 11:12:00,
2013-08-02 05:23:00,51.0,40.0,-100.00,WSW,254,2.0,12.0,66,0.00,,,0.00,,2013-08-02 11:23:00,
2013-08-02 05:52:00,51.0,39.0,-100.00,West,262,4.0,11.0,64,0.00,,,0.00,,2013-08-02 11:52:00,
2013-08-02 06:02:00,51.0,39.0,-100.00,West,262,4.0,11.0,64,0.00,,,0.00,,2013-08-02 12:02:00,
2013-08-02 06:12:00,51.0,39.0,-100.00,West,262,4.0,11.0,64,0.00,,,0.00,,2013-08-02 12:12:00,
2013-08-02 06:22:00,51.0,39.0,-100.00,West,262,4.0,11.0,64,0.00,,,0.00,,2013-08-02 12:22:00,
2013-08-02 06:52:00,50.0,39.0,-100.00,SW,235,5.0,13.0,66,0.00,,,0.00,,2013-08-02 12:52:00,
2013-08-02 07:02:00,50.0,39.0,-100.00,SW,235,5.0,13.0,66,0.00,,,0.00,,2013-08-02 13:02:00,
2013-08-02 07:12:00,50.0,39.0,-100.00,SW,235,5.0,13.0,66,0.00,,,0.00,,2013-08-02 13:12:00,
2013-08-02 07:22:00,50.0,39.0,-100.00,SW,235,5.0,13.0,66,0.00,,,0.00,,2013-08-02 13:22:00,
2013-08-02 07:52:00,53.0,41.0,-100.00,SW,223,4.0,17.0,63,0.00,,,0.00,,2013-08-02 13:52:00,
2013-08-02 08:02:00,53.0,41.0,-100.00,SW,223,4.0,17.0,63,0.00,,,0.00,,2013-08-02 14:02:00,
2013-08-02 08:12:00,53.0,41.0,-100.00,SW,223,4.0,17.0,63,0.00,,,0.00,,2013-08-02 14:12:00,
2013-08-02 08:22:00,53.0,41.0,-100.00,SW,223,4.0,17.0,63,0.00,,,0.00,,2013-08-02 14:22:00,
2013-08-02 08:53:00,57.0,41.0,-100.00,WSW,242,6.0,14.0,56,0.00,,,0.00,,2013-08-02 14:53:00,
2013-08-02 09:03:00,57.0,41.0,-100.00,WSW,242,6.0,14.0,56,0.00,,,0.00,,2013-08-02 15:03:00,
2013-08-02 09:12:00,57.0,41.0,-100.00,WSW,242,6.0,14.0,56,0.00,,,0.00,,2013-08-02 15:12:00,
2013-08-02 09:22:00,57.0,41.0,-100.00,WSW,242,6.0,14.0,56,0.00,,,0.00,,2013-08-02 15:22:00,
2013-08-02 09:52:00,59.0,42.0,-100.00,West,277,17.0,30.0,53,0.00,,,0.00,,2013-08-02 15:52:00,
2013-08-02 10:02:00,59.0,42.0,-100.00,West,277,17.0,30.0,53,0.00,,,0.00,,2013-08-02 16:02:00,
2013-08-02 10:12:00,59.0,42.0,-100.00,West,277,17.0,30.0,53,0.00,,,0.00,,2013-08-02 16:12:00,
2013-08-02 10:22:00,59.0,42.0,-100.00,West,277,17.0,30.0,53,0.00,,,0.00,,2013-08-02 16:22:00,
2013-08-02 10:53:00,61.0,44.0,-100.00,WNW,286,16.0,42.0,53,0.00,,,0.00,,2013-08-02 16:53:00,
2013-08-02 11:02:00,61.0,44.0,-100.00,WNW,286,16.0,42.0,53,0.00,,,0.00,,2013-08-02 17:02:00,
2013-08-02 11:12:00,61.0,44.0,-100.00,WNW,286,16.0,42.0,53,0.00,,,0.00,,2013-08-02 17:12:00,
2013-08-02 11:22:00,61.0,44.0,-100.00,WNW,286,16.0,42.0,53,0.00,,,0.00,,2013-08-02 17:22:00,
2013-08-02 11:52:00,63.0,42.0,-100.00,West,274,28.0,49.0,46,0.00,,,0.00,,2013-08-02 17:52:00,
2013-08-02 12:02:00,63.0,42.0,-100.00,West,274,28.0,49.0,46,0.00,,,0.00,,2013-08-02 18:02:00,
2013-08-02 12:12:00,63.0,42.0,-100.00,West,274,28.0,49.0,46,0.00,,,0.00,,2013-08-02 18:12:00,
2013-08-02 12:22:00,63.0,42.0,-100.00,West,274,28.0,49.0,46,0.00,,,0.00,,2013-08-02 18:22:00,
2013-08-02 12:52:00,64.0,42.0,-100.00,West,273,13.0,52.0,45,0.00,,,0.00,,2013-08-02 18:52:00,
2013-08-02 13:02:00,64.0,42.0,-100.00,West,273,13.0,52.0,45,0.00,,,0.00,,2013-08-02 19:02:00,
2013-08-02 13:12:00,64.0,42.0,-100.00,West,273,13.0,52.0,45,0.00,,,0.00,,2013-08-02 19:12:00,
2013-08-02 13:22:00,64.0,42.0,-100.00,West,273,13.0,52.0,45,0.00,,,0.00,,2013-08-02 19:22:00,
2013-08-02 13:52:00,67.0,41.0,-100.00,West,278,19.0,42.0,38,0.00,,,0.00,,2013-08-02 19:52:00,
2013-08-02 14:02:00,67.0,41.0,-100.00,West,278,19.0,42.0,38,0.00,,,0.00,,2013-08-02 20:02:00,
2013-08-02 14:12:00,67.0,41.0,-100.00,West,278,19.0,42.0,38,0.00,,,0.00,,2013-08-02 20:12:00,
2013-08-02 14:22:00,67.0,41.0,-100.00,West,278,19.0,42.0,38,0.00,,,0.00,,2013-08-02 20:22:00,
2013-08-02 14:52:00,68.0,40.0,-100.00,West,276,14.0,50.0,36,0.00,,,0.00,,2013-08-02 20:52:00,
2013-08-02 15:02:00,68.0,40.0,-100.00,West,276,14.0,50.0,36,0.00,,,0.00,,2013-08-02 21:02:00,
2013-08-02 15:12:00,68.0,40.0,-100.00,West,276,14.0,50.0,36,0.00,,,0.00,,2013-08-02 21:12:00,
2013-08-02 15:22:00,68.0,40.0,-100.00,West,276,14.0,50.0,36,0.00,,,0.00,,2013-08-02 21:22:00,
2013-08-02 15:53:00,70.0,33.0,-100.00,West,267,17.0,49.0,25,0.00,,,0.00,,2013-08-02 21:53:00,
2013-08-02 16:02:00,70.0,33.0,-100.00,West,267,17.0,49.0,25,0.00,,,0.00,,2013-08-02 22:02:00,
2013-08-02 16:12:00,70.0,33.0,-100.00,West,267,17.0,49.0,25,0.00,,,0.00,,2013-08-02 22:12:00,
2013-08-02 16:22:00,70.0,33.0,-100.00,West,267,17.0,49.0,25,0.00,,,0.00,,2013-08-02 22:22:00,
2013-08-02 16:52:00,70.0,29.0,-100.00,WSW,254,17.0,45.0,22,0.00,,,0.00,,2013-08-02 22:52:00,
2013-08-02 17:02:00,70.0,29.0,-100.00,WSW,254,17.0,45.0,22,0.00,,,0.00,,2013-08-02 23:02:00,
2013-08-02 17:12:00,70.0,29.0,-100.00,WSW,254,17.0,45.0,22,0.00,,,0.00,,2013-08-02 23:12:00,
2013-08-02 17:22:00,70.0,29.0,-100.00,WSW,254,17.0,45.0,22,0.00,,,0.00,,2013-08-02 23:22:00,
2013-08-02 17:53:00,70.0,27.0,-100.00,WNW,283,23.0,45.0,20,0.00,,,0.00,,2013-08-02 23:53:00,
2013-08-02 18:02:00,70.0,27.0,-100.00,WNW,283,23.0,45.0,20,0.00,,,0.00,,2013-08-03 00:02:00,
2013-08-02 18:12:00,70.0,27.0,-100.00,WNW,283,23.0,45.0,20,0.00,,,0.00,,2013-08-03 00:12:00,
2013-08-02 18:22:00,70.0,27.0,-100.00,WNW,283,23.0,45.0,20,0.00,,,0.00,,2013-08-03 00:22:00,
2013-08-02 18:52:00,68.0,29.0,-100.00,WSW,258,16.0,48.0,23,0.00,,,0.00,,2013-08-03 00:52:00,
2013-08-02 19:02:00,68.0,29.0,-100.00,WSW,258,16.0,48.0,23,0.00,,,0.00,,2013-08-03 01:02:00,
2013-08-02 19:12:00,68.0,29.0,-100.00,WSW,258,16.0,48.0,23,0.00,,,0.00,,2013-08-03 01:12:00,
2013-08-02 19:22:00,68.0,29.0,-100.00,WSW,258,16.0,48.0,23,0.00,,,0.00,,2013-08-03 01:22:00,
2013-08-02 19:53:00,67.0,30.0,-100.00,West,274,18.0,38.0,25,0.00,,,0.00,,2013-08-03 01:53:00,
2013-08-02 20:02:00,67.0,30.0,-100.00,West,274,18.0,38.0,25,0.00,,,0.00,,2013-08-03 02:02:00,
2013-08-02 20:12:00,67.0,30.0,-100.00,West,274,18.0,38.0,25,0.00,,,0.00,,2013-08-03 02:12:00,
2013-08-02 20:22:00,67.0,30.0,-100.00,West,274,18.0,38.0,25,0.00,,,0.00,,2013-08-03 02:22:00,
2013-08-02 20:52:00,61.0,29.0,-100.00,WSW,251,5.0,35.0,30,0.00,,,0.00,,2013-08-03 02:52:00,
2013-08-02 21:02:00,61.0,29.0,-100.00,WSW,251,5.0,35.0,30,0.00,,,0.00,,2013-08-03 03:02:00,
2013-08-02 21:12:00,61.0,29.0,-100.00,WSW,251,5.0,35.0,30,0.00,,,0.00,,2013-08-03 03:12:00,
2013-08-02 21:22:00,61.0,29.0,-100.00,WSW,251,5.0,35.0,30,0.00,,,0.00,,2013-08-03 03:22:00,
2013-08-02 21:53:00,59.0,33.0,-100.00,WSW,250,1.0,7.0,37,0.00,,,0.00,,2013-08-03 03:53:00,
2013-08-02 22:02:00,59.0,33.0,-100.00,WSW,250,1.0,7.0,37,0.00,,,0.00,,2013-08-03 04:02:00,
2013-08-02 22:12:00,59.0,33.0,-100.00,WSW,250,1.0,7.0,37,0.00,,,0.00,,2013-08-03 04:12:00,
2013-08-02 22:22:00,59.0,33.0,-100.00,WSW,250,1.0,7.0,37,0.00,,,0.00,,2013-08-03 04:22:00,
2013-08-02 22:53:00,58.0,33.0,-100.00,SW,216,6.0,23.0,39,0.00,,,0.00,,2013-08-03 04:53:00,
2013-08-02 23:02:00,58.0,33.0,-100.00,SW,216,6.0,23.0,39,0.00,,,0.00,,2013-08-03 05:02:00,
2013-08-02 23:12:00,58.0,33.0,-100.00,SW,216,6.0,23.0,39,0.00,,,0.00,,2013-08-03 05:12:00,
2013-08-02 23:22:00,58.0,33.0,-100.00,SW,216,6.0,23.0,39,0.00,,,0.00,,2013-08-03 05:22:00,
2013-08-02 23:52:00,58.0,34.0,-100.00,South,177,10.0,28.0,40,0.00,,,0.00,,2013-08-03 05:52:00,